User: anonymous   Login
Location: Lawrence Hall of Science
(37.8785°N, 122.2415°W)
Time: 01:31:51
(UTC-07:00)
Language:

ARGOS - Orbit

View from above orbital plane
View from above orbital plane
View from above satellite
View from above satellite

Ground track
Ground track

The orbit data is extracted from the following two-line orbital elements,

1 25634U 99008A   15244.21680782  .00000014  00000-0  27588-4 0  9995
2 25634  98.7086 310.4426 0009190 298.1076 127.2136 14.19255235855560
Epoch (UTC): 01 September 2015 05:12:12
Eccentricity: 0.0009190
inclination: 98.7086°
perigee height: 821 km
apogee height: 834 km
right ascension of ascending node: 310.4426°
argument of perigee: 298.1076°
revolutions per day: 14.19255235
mean anomaly at epoch: 127.2136°
orbit number at epoch: 85556

The dashed part of the orbit path shows where the satellite is in the earth's shadow,  

DLR